| time (UTC) | temp F | wind direction | speed MPH | gust MPH | rain 1hr in | rain 24hr in | rain mn in | humidity % | barometer mb |
| 20260506201504 | 65 | 2 | 6.0 | 9.0 | 0.00 | 0.04 | 0.04 | 80 | 1007.9 |
| 20260506201003 | 65 | 1 | 8.0 | 9.0 | 0.00 | 0.04 | 0.04 | 80 | 1007.8 |
| 20260506200503 | 65 | 1 | 8.0 | 9.0 | 0.00 | 0.04 | 0.04 | 80 | 1008.0 |
| 20260506200004 | 65 | 2 | 7.0 | 8.0 | 0.00 | 0.04 | 0.04 | 81 | 1008.0 |
| 20260506195503 | 64 | 1 | 5.0 | 8.0 | 0.00 | 0.04 | 0.04 | 81 | 1008.1 |
| 20260506195003 | 64 | 1 | 5.0 | 5.0 | 0.00 | 0.04 | 0.04 | 82 | 1008.1 |
| 20260506194003 | 64 | 2 | 7.0 | 15.0 | 0.00 | 0.04 | 0.04 | 82 | 1008.1 |
| 20260506193503 | 64 | 1 | 6.0 | 15.0 | 0.00 | 0.04 | 0.04 | 82 | 1008.3 |
| 20260506193004 | 64 | 1 | 5.0 | 11.0 | 0.00 | 0.04 | 0.04 | 82 | 1008.4 |
| 20260506192004 | 63 | 1 | 7.0 | 10.0 | 0.00 | 0.04 | 0.04 | 82 | 1008.4 |
| 20260506191503 | 63 | 2 | 6.0 | 10.0 | 0.00 | 0.04 | 0.04 | 83 | 1008.5 |
| 20260506191004 | 63 | 2 | 6.0 | 10.0 | 0.00 | 0.04 | 0.04 | 83 | 1008.5 |
| 20260506190504 | 63 | 2 | 6.0 | 10.0 | 0.00 | 0.04 | 0.04 | 83 | 1008.4 |
| 20260506190004 | 63 | 1 | 5.0 | 6.0 | 0.00 | 0.04 | 0.04 | 83 | 1008.5 |
| 20260506185503 | 63 | 1 | 5.0 | 6.0 | 0.00 | 0.04 | 0.04 | 83 | 1008.6 |
| 20260506185003 | 63 | 2 | 7.0 | 13.0 | 0.00 | 0.04 | 0.04 | 83 | 1008.6 |
| 20260506184504 | 63 | 1 | 7.0 | 13.0 | 0.00 | 0.04 | 0.04 | 83 | 1008.7 |
| 20260506184003 | 63 | 1 | 7.0 | 14.0 | 0.00 | 0.04 | 0.04 | 83 | 1008.7 |
| 20260506182504 | 63 | 2 | 6.0 | 13.0 | 0.00 | 0.04 | 0.04 | 83 | 1008.8 |
| 20260506182003 | 63 | 1 | 6.0 | 13.0 | 0.00 | 0.04 | 0.04 | 83 | 1008.8 |
| 20260506181503 | 63 | 1 | 7.0 | 7.0 | 0.00 | 0.04 | 0.04 | 82 | 1008.8 |
| 20260506180503 | 63 | 2 | 7.0 | 10.0 | 0.00 | 0.04 | 0.04 | 83 | 1008.8 |
| 20260506180004 | 63 | 1 | 5.0 | 10.0 | 0.00 | 0.04 | 0.04 | 83 | 1008.8 |
| 20260506175503 | 63 | 1 | 4.0 | 4.0 | 0.00 | 0.04 | 0.04 | 84 | 1008.8 |
| 20260506175004 | 63 | 2 | 4.0 | 6.0 | 0.00 | 0.04 | 0.04 | 84 | 1009.0 |
| 20260506174503 | 63 | 1 | 5.0 | 9.0 | 0.00 | 0.04 | 0.04 | 84 | 1008.9 |
| 20260506173004 | 63 | 1 | 7.0 | 19.0 | 0.00 | 0.04 | 0.04 | 84 | 1009.0 |
| 20260506172503 | 63 | 1 | 6.0 | 19.0 | 0.00 | 0.04 | 0.04 | 84 | 1009.1 |
| 20260506172003 | 63 | 1 | 5.0 | 7.0 | 0.01 | 0.04 | 0.04 | 84 | 1009.2 |
| 20260506171504 | 63 | 1 | 4.0 | 6.0 | 0.01 | 0.04 | 0.04 | 86 | 1009.1 |
| 20260506171003 | 63 | 2 | 4.0 | 6.0 | 0.01 | 0.04 | 0.04 | 86 | 1009.2 |
| 20260506170504 | 63 | 1 | 4.0 | 6.0 | 0.02 | 0.04 | 0.04 | 86 | 1009.0 |
| 20260506170004 | 63 | 2 | 4.0 | 9.0 | 0.02 | 0.04 | 0.04 | 87 | 1009.2 |
| 20260506165503 | 62 | 1 | 4.0 | 9.0 | 0.02 | 0.04 | 0.04 | 87 | 1009.0 |
| 20260506165003 | 62 | 2 | 3.0 | 5.0 | 0.02 | 0.04 | 0.04 | 87 | 1009.0 |
| 20260506164504 | 62 | 1 | 3.0 | 4.0 | 0.03 | 0.04 | 0.04 | 87 | 1009.3 |
| 20260506164004 | 62 | 1 | 3.0 | 3.0 | 0.03 | 0.04 | 0.04 | 87 | 1009.2 |
| 20260506163003 | 62 | 1 | 2.0 | 3.0 | 0.04 | 0.04 | 0.04 | 87 | 1009.4 |
| 20260506162503 | 62 | 1 | 2.0 | 2.0 | 0.04 | 0.04 | 0.04 | 87 | 1009.6 |
| 20260506162003 | 62 | 1 | 2.0 | 4.0 | 0.03 | 0.03 | 0.03 | 86 | 1009.9 |
| 20260506161503 | 62 | 2 | 4.0 | 6.0 | 0.03 | 0.03 | 0.03 | 86 | 1010.1 |
| 20260506161003 | 62 | 1 | 4.0 | 6.0 | 0.03 | 0.03 | 0.03 | 85 | 1010.3 |
| 20260506160504 | 62 | 1 | 5.0 | 8.0 | 0.02 | 0.02 | 0.02 | 84 | 1010.4 |
| 20260506160004 | 62 | 1 | 5.0 | 8.0 | 0.02 | 0.02 | 0.02 | 84 | 1010.5 |
| 20260506155503 | 62 | 2 | 4.0 | 7.0 | 0.02 | 0.02 | 0.02 | 83 | 1010.6 |
| 20260506155003 | 62 | 2 | 3.0 | 8.0 | 0.02 | 0.02 | 0.02 | 83 | 1010.6 |
| 20260506154504 | 63 | 2 | 4.0 | 8.0 | 0.01 | 0.01 | 0.01 | 82 | 1010.6 |
| 20260506154003 | 63 | 1 | 3.0 | 6.0 | 0.01 | 0.01 | 0.01 | 82 | 1010.6 |
| 20260506153503 | 63 | 1 | 4.0 | 6.0 | 0.01 | 0.01 | 0.01 | 81 | 1010.4 |
| 20260506153003 | 63 | 1 | 5.0 | 7.0 | 0.00 | 0.00 | 0.00 | 80 | 1010.4 |
| 20260506152504 | 64 | 2 | 6.0 | 8.0 | 0.00 | 0.00 | 0.00 | 79 | 1010.6 |
| 20260506152003 | 64 | 1 | 6.0 | 8.0 | 0.00 | 0.00 | 0.00 | 76 | 1010.5 |
| 20260506151503 | 65 | 1 | 6.0 | 8.0 | 0.00 | 0.00 | 0.00 | 75 | 1010.6 |
| 20260506151004 | 65 | 1 | 5.0 | 8.0 | 0.00 | 0.00 | 0.00 | 73 | 1010.3 |
| 20260506145503 | 66 | 1 | 5.0 | 7.0 | 0.00 | 0.00 | 0.00 | 72 | 1010.3 |
| 20260506145003 | 66 | 1 | 5.0 | 7.0 | 0.00 | 0.00 | 0.00 | 72 | 1010.4 |
| 20260506144504 | 66 | 2 | 6.0 | 7.0 | 0.00 | 0.00 | 0.00 | 70 | 1010.5 |
| 20260506144004 | 66 | 1 | 6.0 | 7.0 | 0.00 | 0.00 | 0.00 | 69 | 1010.6 |
| 20260506143004 | 67 | 2 | 7.0 | 11.0 | 0.00 | 0.00 | 0.00 | 67 | 1010.5 |
| 20260506142505 | 67 | 1 | 8.0 | 9.0 | 0.00 | 0.00 | 0.00 | 67 | 1010.6 |
| 20260506142003 | 67 | 1 | 9.0 | 11.0 | 0.00 | 0.00 | 0.00 | 67 | 1010.5 |
| 20260506141504 | 67 | 2 | 7.0 | 11.0 | 0.00 | 0.00 | 0.00 | 67 | 1010.5 |
| 20260506140503 | 67 | 1 | 6.0 | 7.0 | 0.00 | 0.00 | 0.00 | 67 | 1010.4 |
| 20260506140003 | 68 | 2 | 4.0 | 5.0 | 0.00 | 0.00 | 0.00 | 67 | 1010.5 |
| 20260506135504 | 67 | 1 | 5.0 | 8.0 | 0.00 | 0.00 | 0.00 | 67 | 1010.3 |
| 20260506135003 | 67 | 1 | 6.0 | 9.0 | 0.00 | 0.00 | 0.00 | 68 | 1010.3 |
| 20260506134503 | 66 | 1 | 6.0 | 9.0 | 0.00 | 0.00 | 0.00 | 69 | 1010.4 |
| 20260506134003 | 66 | 1 | 5.0 | 9.0 | 0.00 | 0.00 | 0.00 | 69 | 1010.5 |
| 20260506133504 | 66 | 2 | 5.0 | 7.0 | 0.00 | 0.00 | 0.00 | 70 | 1010.4 |
| 20260506133004 | 66 | 1 | 7.0 | 7.0 | 0.00 | 0.00 | 0.00 | 70 | 1010.4 |
| 20260506132503 | 66 | 1 | 7.0 | 7.0 | 0.00 | 0.00 | 0.00 | 69 | 1010.6 |
| 20260506132003 | 66 | 2 | 8.0 | 14.0 | 0.00 | 0.00 | 0.00 | 70 | 1010.4 |
| 20260506131504 | 66 | 2 | 7.0 | 14.0 | 0.00 | 0.00 | 0.00 | 70 | 1010.6 |
| 20260506131003 | 66 | 1 | 7.0 | 12.0 | 0.00 | 0.00 | 0.00 | 69 | 1010.8 |
| 20260506130503 | 66 | 2 | 7.0 | 15.0 | 0.00 | 0.00 | 0.00 | 69 | 1010.7 |
| 20260506130004 | 66 | 1 | 7.0 | 15.0 | 0.00 | 0.00 | 0.00 | 69 | 1010.9 |
| 20260506125503 | 66 | 2 | 6.0 | 10.0 | 0.00 | 0.00 | 0.00 | 70 | 1010.7 |
| 20260506125003 | 66 | 2 | 6.0 | 11.0 | 0.00 | 0.00 | 0.00 | 70 | 1010.6 |
| 20260506124503 | 66 | 1 | 6.0 | 11.0 | 0.00 | 0.00 | 0.00 | 71 | 1010.6 |
| 20260506124004 | 65 | 2 | 5.0 | 11.0 | 0.00 | 0.00 | 0.00 | 71 | 1010.7 |
| 20260506123503 | 65 | 2 | 4.0 | 7.0 | 0.00 | 0.00 | 0.00 | 71 | 1010.5 |
| 20260506123003 | 65 | 2 | 4.0 | 7.0 | 0.00 | 0.00 | 0.00 | 71 | 1010.4 |
| 20260506122503 | 65 | 1 | 4.0 | 5.0 | 0.00 | 0.00 | 0.00 | 71 | 1010.5 |
| 20260506122005 | 65 | 2 | 4.0 | 10.0 | 0.00 | 0.00 | 0.00 | 72 | 1010.3 |
| 20260506121503 | 65 | 2 | 5.0 | 10.0 | 0.00 | 0.00 | 0.00 | 72 | 1010.3 |
| 20260506121003 | 65 | 1 | 4.0 | 10.0 | 0.00 | 0.00 | 0.00 | 72 | 1010.5 |
| 20260506120503 | 64 | 1 | 4.0 | 5.0 | 0.00 | 0.00 | 0.00 | 73 | 1010.6 |
| 20260506120004 | 64 | 1 | 4.0 | 4.0 | 0.00 | 0.00 | 0.00 | 73 | 1010.5 |
| 20260506115503 | 64 | 2 | 4.0 | 8.0 | 0.00 | 0.00 | 0.00 | 73 | 1010.5 |
| 20260506115003 | 64 | 2 | 4.0 | 8.0 | 0.00 | 0.00 | 0.00 | 73 | 1010.5 |
| 20260506114504 | 64 | 1 | 4.0 | 8.0 | 0.00 | 0.00 | 0.00 | 74 | 1010.5 |
| 20260506114003 | 64 | 1 | 3.0 | 6.0 | 0.00 | 0.00 | 0.00 | 74 | 1010.4 |
| 20260506113503 | 64 | 1 | 3.0 | 6.0 | 0.00 | 0.00 | 0.00 | 74 | 1010.4 |
| 20260506113005 | 64 | 1 | 4.0 | 8.0 | 0.00 | 0.00 | 0.00 | 74 | 1010.4 |
| 20260506112003 | 64 | 2 | 4.0 | 9.0 | 0.00 | 0.00 | 0.00 | 74 | 1010.5 |
| 20260506111503 | 64 | 2 | 3.0 | 5.0 | 0.00 | 0.00 | 0.00 | 74 | 1010.5 |
| 20260506110004 | 64 | 1 | 3.0 | 5.0 | 0.00 | 0.00 | 0.00 | 75 | 1010.4 |
| 20260506105503 | 64 | 1 | 4.0 | 5.0 | 0.00 | 0.00 | 0.00 | 75 | 1010.3 |
| 20260506105003 | 64 | 1 | 4.0 | 5.0 | 0.00 | 0.00 | 0.00 | 75 | 1010.3 |
| 20260506104504 | 64 | 2 | 3.0 | 5.0 | 0.00 | 0.00 | 0.00 | 75 | 1010.3 |
| 20260506104003 | 64 | 1 | 4.0 | 7.0 | 0.00 | 0.00 | 0.00 | 75 | 1010.2 |
| 20260506103503 | 64 | 2 | 4.0 | 7.0 | 0.00 | 0.00 | 0.00 | 75 | 1010.4 |
| 20260506103003 | 64 | 1 | 4.0 | 7.0 | 0.00 | 0.00 | 0.00 | 76 | 1010.3 |
| 20260506102504 | 63 | 1 | 3.0 | 4.0 | 0.00 | 0.00 | 0.00 | 76 | 1010.2 |
| 20260506102003 | 63 | 2 | 3.0 | 6.0 | 0.00 | 0.00 | 0.00 | 76 | 1010.3 |
| 20260506100505 | 64 | 2 | 4.0 | 7.0 | 0.00 | 0.00 | 0.00 | 76 | 1010.3 |
| 20260506100003 | 63 | 2 | 4.0 | 7.0 | 0.00 | 0.00 | 0.00 | 76 | 1010.3 |
| 20260506095503 | 63 | 1 | 3.0 | 7.0 | 0.00 | 0.00 | 0.00 | 76 | 1010.3 |
| 20260506095003 | 64 | 1 | 3.0 | 5.0 | 0.00 | 0.00 | 0.00 | 76 | 1010.2 |
| 20260506094503 | 64 | 2 | 4.0 | 5.0 | 0.00 | 0.00 | 0.00 | 76 | 1010.1 |
| 20260506094003 | 64 | 1 | 4.0 | 6.0 | 0.00 | 0.00 | 0.00 | 76 | 1010.1 |
| 20260506093004 | 64 | 2 | 4.0 | 6.0 | 0.00 | 0.00 | 0.00 | 75 | 1010.1 |
| 20260506092503 | 64 | 2 | 3.0 | 6.0 | 0.00 | 0.00 | 0.00 | 75 | 1010.2 |
| 20260506092004 | 64 | 1 | 3.0 | 4.0 | 0.00 | 0.00 | 0.00 | 75 | 1010.2 |
| 20260506091503 | 64 | 1 | 3.0 | 4.0 | 0.00 | 0.00 | 0.00 | 75 | 1010.2 |
| 20260506091003 | 64 | 1 | 3.0 | 5.0 | 0.00 | 0.00 | 0.00 | 75 | 1010.2 |
| 20260506090504 | 64 | 2 | 4.0 | 5.0 | 0.00 | 0.00 | 0.00 | 75 | 1010.2 |
| 20260506090004 | 64 | 1 | 3.0 | 5.0 | 0.00 | 0.00 | 0.00 | 75 | 1010.2 |
| 20260506085503 | 64 | 2 | 3.0 | 6.0 | 0.00 | 0.00 | 0.00 | 75 | 1010.3 |
| 20260506084504 | 64 | 2 | 4.0 | 6.0 | 0.00 | 0.00 | 0.00 | 75 | 1010.3 |
| 20260506084003 | 64 | 1 | 4.0 | 6.0 | 0.00 | 0.00 | 0.00 | 75 | 1010.3 |
| 20260506083503 | 64 | 2 | 3.0 | 4.0 | 0.00 | 0.00 | 0.00 | 75 | 1010.3 |
| 20260506083003 | 64 | 1 | 3.0 | 4.0 | 0.00 | 0.00 | 0.00 | 75 | 1010.4 |
| 20260506082504 | 64 | 1 | 3.0 | 3.0 | 0.00 | 0.00 | 0.00 | 75 | 1010.3 |
| 20260506082003 | 64 | 1 | 3.0 | 3.0 | 0.00 | 0.00 | 0.00 | 75 | 1010.4 |
| 20260506081503 | 64 | 1 | 3.0 | 3.0 | 0.00 | 0.00 | 0.00 | 75 | 1010.5 |
| 20260506081003 | 65 | 1 | 3.0 | 3.0 | 0.00 | 0.00 | 0.00 | 75 | 1010.5 |
| 20260506080504 | 65 | 1 | 3.0 | 5.0 | 0.00 | 0.00 | 0.00 | 75 | 1010.6 |
| 20260506073503 | 65 | 1 | 2.0 | 6.0 | 0.00 | 0.00 | 0.00 | 73 | 1010.6 |
| 20260506073004 | 66 | 2 | 3.0 | 6.0 | 0.00 | 0.00 | 0.00 | 73 | 1010.6 |
| 20260506072003 | 66 | 1 | 3.0 | 5.0 | 0.00 | 0.00 | 0.00 | 73 | 1010.7 |
| 20260506071503 | 66 | 1 | 3.0 | 3.0 | 0.00 | 0.00 | 0.00 | 73 | 1010.8 |
| 20260506071003 | 66 | 1 | 3.0 | 3.0 | 0.00 | 0.00 | 0.00 | 72 | 1010.8 |
| 20260506070504 | 66 | 1 | 3.0 | 3.0 | 0.00 | 0.00 | 0.00 | 72 | 1010.7 |
| 20260506062504 | 66 | 2 | 4.0 | 5.0 | 0.00 | 0.00 | 0.00 | 71 | 1010.9 |
| 20260506061004 | 66 | 2 | 3.0 | 7.0 | 0.00 | 0.00 | 0.00 | 71 | 1010.8 |
| 20260506060504 | 66 | 1 | 4.0 | 7.0 | 0.00 | 0.00 | 0.00 | 71 | 1011.0 |
| 20260506050504 | 67 | 1 | 5.0 | 8.0 | 0.00 | 0.00 | 0.00 | 67 | 1011.3 |
| 20260506044503 | 67 | 2 | 4.0 | 9.0 | 0.00 | 0.00 | 0.00 | 66 | 1011.4 |
| 20260506044003 | 68 | 1 | 4.0 | 5.0 | 0.00 | 0.00 | 0.00 | 66 | 1011.4 |
| 20260506043503 | 68 | 1 | 4.0 | 5.0 | 0.00 | 0.00 | 0.00 | 65 | 1011.4 |
| 20260506043004 | 68 | 1 | 4.0 | 6.0 | 0.00 | 0.00 | 0.00 | 65 | 1011.4 |
| 20260506042003 | 68 | 1 | 4.0 | 4.0 | 0.00 | 0.00 | 0.00 | 64 | 1011.4 |
| 20260506041504 | 68 | 1 | 4.0 | 7.0 | 0.00 | 0.00 | 0.00 | 64 | 1011.5 |
| 20260506041004 | 68 | 2 | 4.0 | 7.0 | 0.00 | 0.00 | 0.00 | 63 | 1011.4 |
| 20260506040503 | 68 | 2 | 4.0 | 7.0 | 0.00 | 0.00 | 0.00 | 63 | 1011.4 |
| 20260506040004 | 68 | 2 | 3.0 | 5.0 | 0.00 | 0.00 | 0.00 | 63 | 1011.4 |
| 20260506035503 | 68 | 1 | 4.0 | 5.0 | 0.00 | 0.00 | 0.00 | 62 | 1011.3 |
| 20260506035004 | 69 | 1 | 4.0 | 8.0 | 0.00 | 0.00 | 0.00 | 61 | 1011.3 |
| 20260506034503 | 69 | 1 | 5.0 | 8.0 | 0.00 | 0.00 | 0.00 | 61 | 1011.3 |
| 20260506034004 | 69 | 2 | 4.0 | 8.0 | 0.00 | 0.00 | 0.00 | 61 | 1011.3 |
| 20260506033503 | 69 | 1 | 4.0 | 6.0 | 0.00 | 0.00 | 0.00 | 60 | 1011.2 |
| 20260506033004 | 69 | 2 | 4.0 | 6.0 | 0.00 | 0.00 | 0.00 | 60 | 1011.3 |
| 20260506031503 | 69 | 1 | 5.0 | 6.0 | 0.00 | 0.00 | 0.00 | 59 | 1011.3 |
| 20260506031004 | 69 | 1 | 5.0 | 6.0 | 0.00 | 0.00 | 0.00 | 59 | 1011.3 |
| 20260506030503 | 69 | 1 | 4.0 | 6.0 | 0.00 | 0.00 | 0.00 | 59 | 1011.4 |
| 20260506030003 | 69 | 2 | 4.0 | 5.0 | 0.00 | 0.00 | 0.00 | 59 | 1011.4 |
| 20260506025503 | 69 | 2 | 4.0 | 4.0 | 0.00 | 0.00 | 0.00 | 58 | 1011.4 |
| 20260506025003 | 69 | 1 | 4.0 | 6.0 | 0.00 | 0.00 | 0.00 | 58 | 1011.4 |
| 20260506024504 | 70 | 2 | 4.0 | 6.0 | 0.00 | 0.00 | 0.00 | 58 | 1011.4 |
| 20260506024003 | 69 | 1 | 3.0 | 4.0 | 0.00 | 0.00 | 0.00 | 58 | 1011.5 |
| 20260506023003 | 69 | 1 | 3.0 | 4.0 | 0.00 | 0.00 | 0.00 | 58 | 1011.5 |
| 20260506022504 | 70 | 1 | 3.0 | 3.0 | 0.00 | 0.00 | 0.00 | 58 | 1011.4 |
| 20260506021503 | 70 | 1 | 3.0 | 4.0 | 0.00 | 0.00 | 0.00 | 58 | 1011.5 |
| 20260506021003 | 70 | 2 | 3.0 | 4.0 | 0.00 | 0.00 | 0.00 | 57 | 1011.5 |
| 20260506020503 | 70 | 2 | 3.0 | 5.0 | 0.00 | 0.00 | 0.00 | 57 | 1011.4 |
| 20260506020004 | 70 | 1 | 3.0 | 5.0 | 0.00 | 0.00 | 0.00 | 57 | 1011.4 |
| 20260506015503 | 70 | 2 | 3.0 | 6.0 | 0.00 | 0.00 | 0.00 | 57 | 1011.4 |
| 20260506015003 | 70 | 1 | 4.0 | 8.0 | 0.00 | 0.00 | 0.00 | 56 | 1011.4 |
| 20260506014504 | 70 | 1 | 4.0 | 8.0 | 0.00 | 0.00 | 0.00 | 56 | 1011.4 |
| 20260506014003 | 71 | 2 | 3.0 | 8.0 | 0.00 | 0.00 | 0.00 | 55 | 1011.2 |
| 20260506013503 | 71 | 1 | 3.0 | 5.0 | 0.00 | 0.00 | 0.00 | 54 | 1011.2 |
| 20260506013004 | 72 | 2 | 3.0 | 6.0 | 0.00 | 0.00 | 0.00 | 53 | 1011.1 |
| 20260506012503 | 72 | 2 | 3.0 | 6.0 | 0.00 | 0.00 | 0.00 | 52 | 1011.1 |
| 20260506012003 | 72 | 1 | 3.0 | 6.0 | 0.00 | 0.00 | 0.00 | 51 | 1011.1 |
| 20260506011504 | 73 | 1 | 3.0 | 5.0 | 0.00 | 0.00 | 0.00 | 49 | 1011.0 |
| 20260506011004 | 73 | 2 | 3.0 | 4.0 | 0.00 | 0.00 | 0.00 | 48 | 1011.0 |
| 20260506010503 | 73 | 2 | 3.0 | 6.0 | 0.00 | 0.00 | 0.00 | 47 | 1010.9 |
| 20260506005503 | 74 | 1 | 3.0 | 3.0 | 0.00 | 0.00 | 0.00 | 46 | 1010.7 |
| 20260506005004 | 74 | 2 | 3.0 | 4.0 | 0.00 | 0.00 | 0.00 | 45 | 1010.8 |
| 20260506004504 | 74 | 1 | 4.0 | 4.0 | 0.00 | 0.00 | 0.00 | 44 | 1010.7 |
| 20260506004003 | 75 | 1 | 3.0 | 4.0 | 0.00 | 0.00 | 0.00 | 43 | 1010.6 |
| 20260506003504 | 75 | 2 | 3.0 | 5.0 | 0.00 | 0.00 | 0.00 | 41 | 1010.5 |
| 20260506003003 | 76 | 1 | 3.0 | 5.0 | 0.00 | 0.00 | 0.00 | 41 | 1010.5 |
| 20260506002503 | 76 | 1 | 5.0 | 9.0 | 0.00 | 0.00 | 0.00 | 40 | 1010.4 |
| 20260506002004 | 76 | 2 | 6.0 | 9.0 | 0.00 | 0.00 | 0.00 | 40 | 1010.4 |
| 20260506001504 | 76 | 2 | 5.0 | 8.0 | 0.00 | 0.00 | 0.00 | 40 | 1010.3 |
| 20260506001003 | 76 | 1 | 3.0 | 7.0 | 0.00 | 0.00 | 0.00 | 40 | 1010.3 |
| 20260506000503 | 76 | 1 | 3.0 | 6.0 | 0.00 | 0.00 | 0.00 | 40 | 1010.2 |
| 20260506000004 | 76 | 1 | 3.0 | 5.0 | 0.00 | 0.00 | 0.00 | 40 | 1010.1 |
| 20260505235503 | 77 | 2 | 4.0 | 6.0 | 0.00 | 0.00 | 0.00 | 40 | 1010.1 |
| 20260505235003 | 77 | 2 | 5.0 | 9.0 | 0.00 | 0.00 | 0.00 | 40 | 1010.1 |
| 20260505234503 | 77 | 1 | 5.0 | 9.0 | 0.00 | 0.00 | 0.00 | 40 | 1010.1 |
| 20260505234004 | 77 | 2 | 5.0 | 9.0 | 0.00 | 0.00 | 0.00 | 40 | 1010.0 |
| 20260505233503 | 77 | 2 | 4.0 | 9.0 | 0.00 | 0.00 | 0.00 | 40 | 1010.1 |
| 20260505233003 | 77 | 1 | 3.0 | 5.0 | 0.00 | 0.00 | 0.00 | 40 | 1010.0 |
| 20260505232504 | 77 | 1 | 3.0 | 6.0 | 0.00 | 0.00 | 0.00 | 40 | 1009.9 |
| 20260505232003 | 77 | 1 | 4.0 | 6.0 | 0.00 | 0.00 | 0.00 | 40 | 1009.9 |
| 20260505231003 | 78 | 2 | 6.0 | 7.0 | 0.00 | 0.00 | 0.00 | 39 | 1009.9 |
| 20260505230504 | 78 | 2 | 5.0 | 9.0 | 0.00 | 0.00 | 0.00 | 39 | 1010.0 |
| 20260505230003 | 78 | 2 | 7.0 | 19.0 | 0.00 | 0.00 | 0.00 | 39 | 1009.9 |
| 20260505225504 | 78 | 340 | 10.0 | 19.0 | 0.00 | 0.00 | 0.00 | 38 | 1009.8 |
| 20260505225003 | 79 | 199 | 9.0 | 17.0 | 0.00 | 0.00 | 0.00 | 38 | 1009.8 |
| 20260505224504 | 79 | 195 | 8.0 | 8.0 | 0.00 | 0.00 | 0.00 | 37 | 1009.7 |
| 20260505224003 | 79 | 192 | 7.0 | 8.0 | 0.00 | 0.00 | 0.00 | 36 | 1009.7 |
| 20260505223504 | 80 | 185 | 6.0 | 8.0 | 0.00 | 0.00 | 0.00 | 36 | 1009.8 |
| 20260505223003 | 80 | 186 | 7.0 | 20.0 | 0.00 | 0.00 | 0.00 | 35 | 1009.6 |
| 20260505222503 | 80 | 185 | 8.0 | 20.0 | 0.00 | 0.00 | 0.00 | 34 | 1009.6 |
| 20260505222005 | 80 | 185 | 7.0 | 20.0 | 0.00 | 0.00 | 0.00 | 34 | 1009.6 |
| 20260505221504 | 80 | 196 | 8.0 | 11.0 | 0.00 | 0.00 | 0.00 | 33 | 1009.6 |
| 20260505221003 | 80 | 194 | 7.0 | 9.0 | 0.00 | 0.00 | 0.00 | 33 | 1009.6 |
| 20260505220504 | 80 | 189 | 7.0 | 8.0 | 0.00 | 0.00 | 0.00 | 33 | 1009.5 |
| 20260505220005 | 80 | 190 | 7.0 | 9.0 | 0.00 | 0.00 | 0.00 | 32 | 1009.6 |
| 20260505215503 | 80 | 186 | 7.0 | 11.0 | 0.00 | 0.00 | 0.00 | 33 | 1009.4 |
| 20260505215003 | 80 | 196 | 8.0 | 11.0 | 0.00 | 0.00 | 0.00 | 32 | 1009.4 |
| 20260505214504 | 81 | 213 | 9.0 | 13.0 | 0.00 | 0.00 | 0.00 | 32 | 1009.3 |
| 20260505214003 | 81 | 205 | 8.0 | 13.0 | 0.00 | 0.00 | 0.00 | 31 | 1009.3 |
| 20260505213503 | 81 | 187 | 7.0 | 12.0 | 0.00 | 0.00 | 0.00 | 32 | 1009.4 |
| 20260505213003 | 81 | 205 | 8.0 | 17.0 | 0.00 | 0.00 | 0.00 | 32 | 1009.4 |
| 20260505212504 | 81 | 214 | 10.0 | 17.0 | 0.00 | 0.00 | 0.00 | 31 | 1009.4 |
| 20260505212004 | 81 | 208 | 10.0 | 15.0 | 0.00 | 0.00 | 0.00 | 31 | 1009.5 |
| 20260505211003 | 81 | 199 | 8.0 | 17.0 | 0.00 | 0.00 | 0.00 | 30 | 1009.5 |
| 20260505210504 | 81 | 187 | 7.0 | 17.0 | 0.00 | 0.00 | 0.00 | 29 | 1009.4 |
| 20260505210004 | 81 | 187 | 8.0 | 16.0 | 0.00 | 0.00 | 0.00 | 29 | 1009.4 |
| 20260505205503 | 81 | 177 | 9.0 | 16.0 | 0.00 | 0.00 | 0.00 | 28 | 1009.3 |
| 20260505205003 | 81 | 179 | 10.0 | 17.0 | 0.00 | 0.00 | 0.00 | 28 | 1009.3 |
| 20260505204504 | 82 | 196 | 10.0 | 17.0 | 0.00 | 0.00 | 0.00 | 27 | 1009.4 |
| 20260505203504 | 82 | 192 | 9.0 | 18.0 | 0.00 | 0.00 | 0.00 | 27 | 1009.3 |
| 20260505203004 | 82 | 183 | 10.0 | 18.0 | 0.00 | 0.00 | 0.00 | 28 | 1009.2 |
| 20260505202504 | 82 | 187 | 10.0 | 18.0 | 0.00 | 0.00 | 0.00 | 28 | 1009.4 |